When you browse on this site, cookies collect data to enhance your experience and personalize the content and advertising you see.
Visit our Privacy Policy to learn more. By continuing to use the site, you agree to this use of cookies and data.
  • In Hungary
  • List of Countries
  • For 7 days
  • Water Temperature
  • Satellite Maps
  • Weather Map
  • News
  • Weather Widgets
  • user-avatar
    Login

    Hourly Weather Bolzano

    Today, 19 December, Wednesday

    Time Temperature Precipitation Wind Pressure Humidity
    00:00 +4°C° 0 mm 1 mps 745 mmHg 54%
    01:00 +4°C° 0 mm 1 mps 745 mmHg 53%
    02:00 +4°C° 0 mm 1 mps 745 mmHg 53%
    03:00 +4°C° 0 mm 1 mps 744 mmHg 53%
    04:00 +4°C° 0 mm 1 mps 744 mmHg 53%
    05:00 +4°C° 0 mm 1 mps 744 mmHg 53%
    06:00 +4°C° 0 mm 1 mps 744 mmHg 54%
    07:00 +5°C° 0 mm 1 mps 744 mmHg 54%
    08:00 +6°C° 0 mm 1 mps 744 mmHg 55%
    09:00 +7°C° 0 mm 1 mps 744 mmHg 55%
    10:00 +8°C° 0 mm 1 mps 744 mmHg 55%
    11:00 +8°C° 0 mm 1 mps 743 mmHg 56%
    12:00 +9°C° 0 mm 1 mps 743 mmHg 56%
    13:00 +10°C° 0 mm 1 mps 742 mmHg 56%
    14:00 +9°C° 0 mm 1 mps 742 mmHg 61%
    15:00 +8°C° 0 mm 1 mps 742 mmHg 67%
    16:00 +7°C° 0 mm 1 mps 741 mmHg 72%
    17:00 +6°C° 0 mm 1 mps 741 mmHg 74%
    18:00 +5°C° 0 mm 1 mps 741 mmHg 76%
    19:00 +4°C° 0 mm 1 mps 741 mmHg 78%
    20:00 +5°C° 0.2 mm 1 mps 741 mmHg 80%
    21:00 +5°C° 0.2 mm 1 mps 741 mmHg 81%
    22:00 +6°C° 0.2 mm 1 mps 741 mmHg 83%
    23:00 +6°C° 0.9 mm 1 mps 741 mmHg 86%

    Tomorrow, 20 December, Thursday

    Time Temperature Precipitation Wind Pressure Humidity
    00:00 +6°C° 0.9 mm 1 mps 742 mmHg 89%
    01:00 +6°C° 0.9 mm 1 mps 742 mmHg 92%
    02:00 +6°C° 0.6 mm 1 mps 741 mmHg 92%
    03:00 +6°C° 0.6 mm 1 mps 741 mmHg 92%
    04:00 +5°C° 0.6 mm 0 mps 741 mmHg 91%
    05:00 +6°C° 0.3 mm 1 mps 741 mmHg 91%
    06:00 +6°C° 0.3 mm 1 mps 741 mmHg 90%
    07:00 +6°C° 0.3 mm 1 mps 742 mmHg 90%
    08:00 +6°C° 0.1 mm 1 mps 742 mmHg 87%
    09:00 +7°C° 0.1 mm 1 mps 742 mmHg 85%
    10:00 +8°C° 0.1 mm 1 mps 742 mmHg 83%
    11:00 +9°C° 0.1 mm 1 mps 742 mmHg 80%
    12:00 +9°C° 0.1 mm 1 mps 742 mmHg 77%
    13:00 +10°C° 0.1 mm 1 mps 742 mmHg 74%
    14:00 +9°C° 0.1 mm 1 mps 742 mmHg 78%
    15:00 +8°C° 0.1 mm 1 mps 742 mmHg 82%
    16:00 +8°C° 0.1 mm 1 mps 743 mmHg 86%
    17:00 +7°C° 0.1 mm 1 mps 743 mmHg 87%
    18:00 +6°C° 0.1 mm 1 mps 744 mmHg 87%
    19:00 +5°C° 0.1 mm 1 mps 744 mmHg 88%
    20:00 +5°C° 0 mm 1 mps 745 mmHg 87%
    21:00 +4°C° 0 mm 1 mps 745 mmHg 86%
    22:00 +4°C° 0 mm 1 mps 746 mmHg 85%
    23:00 +3°C° 0 mm 1 mps 746 mmHg 84%

    Day after tomorrow, 21 December, Friday

    Time Temperature Precipitation Wind Pressure Humidity
    00:00 +3°C° 0 mm 1 mps 746 mmHg 83%
    01:00 +3°C° 0 mm 1 mps 746 mmHg 82%
    02:00 +3°C° 0 mm 1 mps 746 mmHg 81%
    03:00 +3°C° 0 mm 1 mps 746 mmHg 79%
    04:00 +3°C° 0 mm 1 mps 746 mmHg 78%
    05:00 +4°C° 0 mm 1 mps 746 mmHg 77%
    06:00 +3°C° 0 mm 2 mps 746 mmHg 76%
    07:00 +3°C° 0 mm 2 mps 746 mmHg 75%
    08:00 +4°C° 0 mm 2 mps 745 mmHg 74%
    09:00 +5°C° 0 mm 2 mps 745 mmHg 72%
    10:00 +6°C° 0 mm 2 mps 745 mmHg 71%
    11:00 +7°C° 0 mm 2 mps 744 mmHg 71%
    12:00 +8°C° 0 mm 2 mps 744 mmHg 71%
    13:00 +9°C° 0 mm 2 mps 743 mmHg 71%
    14:00 +9°C° 0 mm 2 mps 743 mmHg 74%
    15:00 +8°C° 0 mm 2 mps 743 mmHg 77%
    16:00 +7°C° 0 mm 2 mps 743 mmHg 81%
    17:00 +7°C° 0 mm 2 mps 743 mmHg 79%
    18:00 +8°C° 0 mm 1 mps 743 mmHg 77%
    19:00 +8°C° 0 mm 1 mps 743 mmHg 75%
    20:00 +8°C° 0 mm 1 mps 743 mmHg 74%
    21:00 +8°C° 0 mm 1 mps 743 mmHg 73%
    22:00 +8°C° 0 mm 1 mps 743 mmHg 72%
    23:00 +8°C° 0.1 mm 1 mps 743 mmHg 73%

    22 December, Saturday

    Time Temperature Precipitation Wind Pressure Humidity
    00:00 +9°C° 0.1 mm 1 mps 743 mmHg 73%
    01:00 +9°C° 0.1 mm 1 mps 742 mmHg 74%
    02:00 +9°C° 0.1 mm 1 mps 742 mmHg 75%
    03:00 +9°C° 0.1 mm 1 mps 742 mmHg 76%
    04:00 +9°C° 0.1 mm 1 mps 742 mmHg 77%
    05:00 +9°C° 0 mm 1 mps 742 mmHg 77%
    06:00 +9°C° 0 mm 1 mps 742 mmHg 77%
    07:00 +9°C° 0 mm 1 mps 742 mmHg 78%
    08:00 +10°C° 0 mm 1 mps 742 mmHg 77%
    09:00 +10°C° 0 mm 1 mps 742 mmHg 76%
    10:00 +11°C° 0 mm 1 mps 742 mmHg 75%
    11:00 +12°C° 0 mm 1 mps 742 mmHg 77%
    12:00 +13°C° 0 mm 1 mps 742 mmHg 78%
    13:00 +14°C° 0 mm 1 mps 741 mmHg 80%
    14:00 +13°C° 0 mm 1 mps 741 mmHg 82%
    15:00 +12°C° 0 mm 1 mps 741 mmHg 84%
    16:00 +11°C° 0 mm 1 mps 741 mmHg 86%
    17:00 +10°C° 0 mm 1 mps 742 mmHg 85%
    18:00 +9°C° 0 mm 2 mps 742 mmHg 84%
    19:00 +8°C° 0 mm 2 mps 742 mmHg 83%
    20:00 +8°C° 0 mm 2 mps 743 mmHg 82%
    21:00 +8°C° 0 mm 2 mps 743 mmHg 82%
    22:00 +8°C° 0 mm 2 mps 743 mmHg 81%
    23:00 +8°C° 0 mm 2 mps 743 mmHg 81%

    23 December, Sunday

    Time Temperature Precipitation Wind Pressure Humidity
    00:00 +8°C° 0 mm 2 mps 743 mmHg 81%
    01:00 +7°C° 0 mm 2 mps 743 mmHg 81%
    02:00 +7°C° 0 mm 2 mps 743 mmHg 81%
    03:00 +7°C° 0 mm 2 mps 744 mmHg 81%
    04:00 +7°C° 0 mm 2 mps 744 mmHg 81%
    05:00 +7°C° 0 mm 2 mps 744 mmHg 80%
    06:00 +7°C° 0 mm 2 mps 744 mmHg 80%
    07:00 +7°C° 0 mm 2 mps 744 mmHg 80%
    08:00 +8°C° 0 mm 2 mps 745 mmHg 79%
    09:00 +10°C° 0 mm 1 mps 745 mmHg 78%
    10:00 +11°C° 0 mm 1 mps 745 mmHg 77%
    11:00 +12°C° 0 mm 1 mps 745 mmHg 77%
    12:00 +13°C° 0 mm 1 mps 744 mmHg 78%
    13:00 +14°C° 0 mm 1 mps 744 mmHg 79%
    14:00 +14°C° 0 mm 1 mps 744 mmHg 79%
    15:00 +13°C° 0 mm 1 mps 744 mmHg 80%
    16:00 +12°C° 0 mm 1 mps 744 mmHg 81%
    17:00 +12°C° 0.1 mm 1 mps 744 mmHg 80%
    18:00 +11°C° 0.1 mm 1 mps 744 mmHg 80%
    19:00 +10°C° 0.1 mm 1 mps 744 mmHg 80%
    20:00 +10°C° 0 mm 1 mps 744 mmHg 79%
    21:00 +10°C° 0 mm 1 mps 744 mmHg 79%
    22:00 +10°C° 0 mm 1 mps 744 mmHg 79%
    23:00 +10°C° 0 mm 1 mps 744 mmHg 79%

    24 December, Monday

    Time Temperature Precipitation Wind Pressure Humidity
    00:00 +10°C° 0 mm 1 mps 744 mmHg 79%
    01:00 +10°C° 0 mm 1 mps 744 mmHg 80%
    02:00 +10°C° 0 mm 1 mps 744 mmHg 79%
    03:00 +10°C° 0 mm 1 mps 744 mmHg 79%
    04:00 +9°C° 0 mm 2 mps 743 mmHg 79%
    05:00 +9°C° 0 mm 2 mps 743 mmHg 79%
    06:00 +9°C° 0 mm 2 mps 743 mmHg 79%
    07:00 +9°C° 0 mm 2 mps 743 mmHg 78%
    08:00 +11°C° 0 mm 1 mps 743 mmHg 78%
    09:00 +12°C° 0 mm 1 mps 743 mmHg 78%
    10:00 +13°C° 0 mm 1 mps 743 mmHg 78%
    11:00 +14°C° 0 mm 1 mps 743 mmHg 79%
    12:00 +15°C° 0 mm 1 mps 742 mmHg 80%
    13:00 +16°C° 0 mm 1 mps 742 mmHg 81%
    14:00 +15°C° 0 mm 1 mps 742 mmHg 82%
    15:00 +14°C° 0 mm 1 mps 742 mmHg 84%
    16:00 +13°C° 0 mm 1 mps 742 mmHg 86%
    17:00 +13°C° 0.2 mm 1 mps 742 mmHg 86%
    18:00 +12°C° 0.2 mm 1 mps 742 mmHg 86%
    19:00 +12°C° 0.2 mm 1 mps 742 mmHg 87%
    20:00 +11°C° 0.1 mm 1 mps 742 mmHg 87%
    21:00 +11°C° 0.1 mm 1 mps 742 mmHg 87%
    22:00 +11°C° 0.1 mm 1 mps 742 mmHg 87%
    23:00 +11°C° 0.1 mm 1 mps 742 mmHg 87%
    Show more